sat.trackr.live / text

‹ back to catalog

YAOGAN-4

NORAD 33446 · 2008-061A

PAYLOAD ACTIVE UNKNOWN

§ Identity

Operator
Country
PRC
Launch date
2008-12-01
Launch site
JSC
Launch vehicle
Mass (kg)
RCS (m²)
3.18

Purposes: earth_obs

External: N2YO · Heavens-Above · Gunter

§ Orbital elements

Epoch: 2026-09-20T01:58:37.002144Z

Period
97.08 min
Inclination
97.9331°
Eccentricity
0.0015446
Mean motion
14.83348326 rev/d
Perigee alt
608.0 km
Apogee alt
629.6 km
Semi-major
6,996.9 km
B*
7.6224e-5
RAAN
195.9087°
Arg perigee
118.4157°
Mean anomaly
241.8616°
Rev number
95,973

§ Raw data

YAOGAN-41 33446U 08061A   26263.08237271  .00000572  00000+0  76224-4 0  99922 33446  97.9331 195.9087 0015446 118.4157 241.8616 14.83348326959733

JSON: /api/v1/satellites/33446 · /tle

For live sub-satellite position, see the globe view (requires WebGL).

§ Visibility from observer

Set your observer location to see the next 7 days of passes ≥ 10°. The values pass through the URL so the page stays shareable.

No JS? Fill the form by hand. The geolocation button needs JavaScript.

§ Radio — SatNOGS DB

ModeDescriptionDownlinkUplink
FM S-Band Telemetry 2.217 GHz

1 transmitter · refreshed weekly from db.satnogs.org